TimeCDT,TemperatureF,Dew PointF,Humidity,Sea Level PressureIn,VisibilityMPH,Wind Direction,Wind SpeedMPH,Gust SpeedMPH,PrecipitationIn,Events,Conditions,WindDirDegrees,DateUTC
12:53 AM,37.0,28.0,70,30.30,10.0,WNW,8.1,-,N/A,,Mostly Cloudy,290,2012-10-05 05:53:00
1:53 AM,36.0,28.0,73,30.29,10.0,NW,13.8,-,N/A,,Partly Cloudy,310,2012-10-05 06:53:00
3:53 AM,33.1,27.0,78,30.27,10.0,NW,10.4,-,N/A,,Clear,310,2012-10-05 08:53:00
4:53 AM,32.0,26.1,79,30.28,10.0,WNW,12.7,-,N/A,,Clear,300,2012-10-05 09:53:00
5:53 AM,30.9,26.1,82,30.28,10.0,WNW,12.7,-,N/A,,Clear,300,2012-10-05 10:53:00
6:53 AM,28.9,24.1,82,30.28,10.0,WNW,12.7,-,N/A,,Clear,290,2012-10-05 11:53:00
7:53 AM,28.9,24.1,82,30.29,10.0,WNW,15.0,-,N/A,,Clear,290,2012-10-05 12:53:00
8:53 AM,30.0,24.1,79,30.30,10.0,West,16.1,20.7,N/A,,Clear,280,2012-10-05 13:53:00
9:53 AM,33.1,23.0,66,30.30,10.0,WNW,15.0,25.3,N/A,,Clear,300,2012-10-05 14:53:00
10:53 AM,36.0,21.0,55,30.30,10.0,NW,20.7,28.8,N/A,,Clear,320,2012-10-05 15:53:00
11:53 AM,37.0,21.0,52,30.30,10.0,NW,18.4,25.3,N/A,,Clear,310,2012-10-05 16:53:00
12:53 PM,39.0,21.9,50,30.30,10.0,NW,17.3,25.3,N/A,,Clear,320,2012-10-05 17:53:00
1:53 PM,41.0,21.0,45,30.29,10.0,WNW,18.4,26.5,N/A,,Partly Cloudy,300,2012-10-05 18:53:00
2:53 PM,42.1,21.0,43,30.28,10.0,NW,16.1,23.0,N/A,,Partly Cloudy,310,2012-10-05 19:53:00
3:53 PM,43.0,21.9,43,30.27,10.0,NW,19.6,24.2,N/A,,Scattered Clouds,320,2012-10-05 20:53:00
4:53 PM,43.0,19.9,40,30.27,10.0,NW,19.6,26.5,N/A,,Scattered Clouds,320,2012-10-05 21:53:00
5:53 PM,41.0,21.0,45,30.27,10.0,NW,19.6,-,N/A,,Scattered Clouds,320,2012-10-05 22:53:00
6:53 PM,37.0,21.9,54,30.30,10.0,NNW,12.7,23.0,N/A,,Partly Cloudy,340,2012-10-05 23:53:00
7:53 PM,34.0,21.9,61,30.32,10.0,NNW,19.6,24.2,N/A,,Clear,340,2012-10-06 00:53:00
8:53 PM,36.0,21.9,57,30.33,10.0,NW,19.6,-,N/A,,Overcast,320,2012-10-06 01:53:00
9:53 PM,36.0,23.0,59,30.33,10.0,NNW,15.0,-,N/A,,Overcast,330,2012-10-06 02:53:00
10:53 PM,36.0,23.0,59,30.31,10.0,NNW,20.7,25.3,N/A,,Overcast,330,2012-10-06 03:53:00
11:53 PM,35.1,25.0,67,30.32,10.0,NNW,21.9,25.3,N/A,,Overcast,340,2012-10-06 04:53:00